Location: Palomar Mountain Lodge
(33.3110°N, 116.8495°W)
Time: 17:43:55
(UTC-07:00)

Helios 1A - Pass Details

Date: 14 June 2018
Orbit: 585 x 604 km, 98.2° (Epoch: 11 June)

Event Time Altitude Azimuth Distance (km) Brightness Sun altitude
Exits shadow 22:52:25 40° 279° (W) 870 4.0 -27.1°
Drops below altitude 10° 22:55:55 10° 332° (NNW) 1,920 6.6 -27.4°
Sets 22:58:11 0° 340° (NNW) 2,828 7.7 -27.6°
